DLH650 EDDF-UAAA

Flight info

Callsign DLH650
Flight time N/A
Altitude 31000
Route CINDY6F/25C CINDY Z74 HAREM DCT ASLEP DCT TAKUT L603 BESNI/N0466F350 L605 MIQ DCT ALUTU DCT BIBAG/N0460F370 Q104 AKIMA DCT ARSIN DCT GAZDA DCT TEGRI DCT DINRO N743 UDROS DCT CRM DCT ROLIN DCT TAGAR DCT BT DCT BARAD/N0467F390 M747 LUSAL N199 RASAM L88 METKA B476 TIMGA A480 OTBOR/K0861F390 N147 ELAHA Z621 ARBOL M610 TIPSA
Aircraft A343/H-SDE2E3FGHIJ3J5M1P2RWXYZ/LB1D1

Departure

Time 2026-05-04 12:59
Airport Frankfurt Main Airport (EDDF)

Arrival

Time N/A
Airport Almaty International Airport (UAAA)
Time Latitude Longitude Altitude Speed Heading
2026-05-04 12:03 50.04710 8.57287 365 ft 0 kts 276°
2026-05-04 12:43 50.04709 8.57304 367 ft 4 kts 281°
2026-05-04 12:43 50.04701 8.57343 367 ft 4 kts 297°
2026-05-04 12:43 50.04687 8.57378 364 ft 4 kts 311°
2026-05-04 12:43 50.04668 8.57408 369 ft 4 kts 317°
2026-05-04 12:44 50.04652 8.57432 369 ft 4 kts 315°
2026-05-04 12:44 50.04632 8.57460 366 ft 4 kts 322°
2026-05-04 12:44 50.04610 8.57484 366 ft 4 kts 329°
2026-05-04 12:44 50.04586 8.57503 367 ft 4 kts 336°
2026-05-04 12:45 50.04561 8.57519 370 ft 4 kts 341°
2026-05-04 12:45 50.04535 8.57532 368 ft 4 kts 339°
2026-05-04 12:45 50.04529 8.57535 367 ft 0 kts 336°
2026-05-04 12:48 50.04532 8.57533 368 ft 2 kts 336°
2026-05-04 12:48 50.04562 8.57514 369 ft 6 kts 338°
2026-05-04 12:48 50.04600 8.57472 370 ft 6 kts 288°
2026-05-04 12:49 50.04588 8.57403 366 ft 7 kts 250°
2026-05-04 12:49 50.04573 8.57337 365 ft 6 kts 250°
2026-05-04 12:49 50.04558 8.57273 364 ft 6 kts 249°
2026-05-04 12:49 50.04540 8.57199 368 ft 8 kts 250°
2026-05-04 12:50 50.04519 8.57108 365 ft 10 kts 250°
2026-05-04 12:50 50.04501 8.57035 366 ft 12 kts 249°
2026-05-04 12:50 50.04481 8.56951 368 ft 13 kts 249°
2026-05-04 12:50 50.04449 8.56819 369 ft 14 kts 250°
2026-05-04 12:51 50.04410 8.56653 368 ft 18 kts 250°
2026-05-04 12:51 50.04363 8.56457 365 ft 21 kts 249°
2026-05-04 12:51 50.04311 8.56238 367 ft 22 kts 250°
2026-05-04 12:51 50.04255 8.56003 364 ft 24 kts 249°
2026-05-04 12:52 50.04196 8.55755 366 ft 24 kts 250°
2026-05-04 12:52 50.04138 8.55513 362 ft 23 kts 249°
2026-05-04 12:52 50.04084 8.55288 365 ft 21 kts 249°
2026-05-04 12:52 50.04034 8.55081 363 ft 20 kts 249°
2026-05-04 12:53 50.03986 8.54883 360 ft 19 kts 249°
2026-05-04 12:53 50.03939 8.54685 359 ft 20 kts 250°
2026-05-04 12:53 50.03891 8.54487 359 ft 20 kts 249°
2026-05-04 12:53 50.03830 8.54299 358 ft 19 kts 233°
2026-05-04 12:54 50.03774 8.54119 352 ft 18 kts 250°
2026-05-04 12:54 50.03731 8.53938 355 ft 18 kts 249°
2026-05-04 12:54 50.03689 8.53762 357 ft 18 kts 249°
2026-05-04 12:54 50.03646 8.53585 353 ft 17 kts 248°
2026-05-04 12:55 50.03603 8.53414 352 ft 17 kts 250°
2026-05-04 12:55 50.03563 8.53246 350 ft 16 kts 250°
2026-05-04 12:55 50.03523 8.53079 347 ft 16 kts 250°
2026-05-04 12:55 50.03484 8.52918 338 ft 16 kts 248°
2026-05-04 12:56 50.03445 8.52780 335 ft 11 kts 246°
2026-05-04 12:56 50.03438 8.52750 334 ft 0 kts 250°
2026-05-04 12:56 50.03434 8.52732 335 ft 4 kts 250°
2026-05-04 12:56 50.03420 8.52671 336 ft 8 kts 251°
2026-05-04 12:57 50.03392 8.52599 334 ft 6 kts 210°
2026-05-04 12:57 50.03366 8.52593 335 ft 0 kts 180°
2026-05-04 12:58 50.03243 8.52594 336 ft 43 kts 180°
2026-05-04 12:58 50.02777 8.52599 335 ft 90 kts 180°
2026-05-04 12:58 50.02014 8.52607 336 ft 128 kts 179°
2026-05-04 12:59 50.01017 8.52618 334 ft 158 kts 180°
2026-05-04 12:59 49.99860 8.52639 663 ft 164 kts 180°
2026-05-04 12:59 49.98698 8.52647 1098 ft 171 kts 182°
2026-05-04 12:59 49.97484 8.52586 1500 ft 180 kts 181°
2026-05-04 13:00 49.96319 8.53474 1722 ft 204 kts 135°
2026-05-04 13:00 49.95512 8.55403 2082 ft 223 kts 120°
2026-05-04 13:00 49.94778 8.57577 2687 ft 230 kts 120°
2026-05-04 13:00 49.94156 8.59872 3416 ft 235 kts 105°
2026-05-04 13:01 49.93921 8.62473 3858 ft 255 kts 95°
2026-05-04 13:01 49.93822 8.65320 4329 ft 271 kts 93°
2026-05-04 13:01 49.93580 8.68252 5037 ft 277 kts 109°
2026-05-04 13:01 49.92581 8.70769 5767 ft 276 kts 140°
2026-05-04 13:02 49.91076 8.72609 6515 ft 277 kts 147°
2026-05-04 13:02 49.89496 8.74335 7287 ft 278 kts 146°
2026-05-04 13:02 49.88126 8.76465 8073 ft 281 kts 127°
2026-05-04 13:02 49.87112 8.79054 8904 ft 281 kts 122°
2026-05-04 13:03 49.86169 8.81701 9699 ft 281 kts 122°
2026-05-04 13:03 49.85226 8.84355 10381 ft 283 kts 122°
2026-05-04 13:03 49.84238 8.87088 10692 ft 299 kts 122°
2026-05-04 13:03 49.83191 8.89968 10946 ft 315 kts 122°
2026-05-04 13:04 49.82106 8.92950 11195 ft 330 kts 122°
2026-05-04 13:04 49.80940 8.96157 11436 ft 345 kts 122°
2026-05-04 13:04 49.79740 8.99451 11691 ft 358 kts 122°
2026-05-04 13:04 49.78499 9.02859 12115 ft 367 kts 122°
2026-05-04 13:05 49.77255 9.06274 12618 ft 372 kts 121°
2026-05-04 13:05 49.76135 9.09930 13116 ft 381 kts 111°
2026-05-04 13:05 49.75400 9.13958 13695 ft 386 kts 106°
2026-05-04 13:05 49.74589 9.17921 14156 ft 388 kts 116°
2026-05-04 13:06 49.73206 9.21497 14728 ft 388 kts 128°
2026-05-04 13:06 49.71573 9.24750 15255 ft 390 kts 132°
2026-05-04 13:06 49.69786 9.27919 15784 ft 393 kts 134°
2026-05-04 13:06 49.67936 9.31051 16312 ft 396 kts 135°
2026-05-04 13:07 49.66070 9.34187 16844 ft 399 kts 135°
2026-05-04 13:07 49.64197 9.37367 17357 ft 402 kts 134°
2026-05-04 13:07 49.62479 9.40815 17872 ft 409 kts 124°
2026-05-04 13:07 49.61189 9.44754 18373 ft 415 kts 116°
2026-05-04 13:08 49.60126 9.48919 18787 ft 420 kts 112°
2026-05-04 13:08 49.59168 9.53206 19225 ft 424 kts 111°
2026-05-04 13:08 49.58262 9.57543 19678 ft 427 kts 110°
2026-05-04 13:08 49.57361 9.61926 20121 ft 430 kts 110°
2026-05-04 13:09 49.56449 9.66330 20550 ft 433 kts 111°
2026-05-04 13:09 49.55515 9.70766 20935 ft 437 kts 111°
2026-05-04 13:09 49.54561 9.75230 21391 ft 440 kts 111°
2026-05-04 13:09 49.53560 9.79681 21807 ft 441 kts 115°
2026-05-04 13:10 49.52195 9.83890 22215 ft 439 kts 126°
2026-05-04 13:10 49.50468 9.87760 22605 ft 440 kts 130°
2026-05-04 13:10 49.48607 9.91508 22981 ft 441 kts 131°
2026-05-04 13:10 49.46676 9.95190 23417 ft 443 kts 133°
2026-05-04 13:11 49.44708 9.98856 23767 ft 446 kts 133°
2026-05-04 13:11 49.42721 10.02537 24081 ft 448 kts 133°
2026-05-04 13:11 49.40730 10.06235 24382 ft 451 kts 133°
2026-05-04 13:11 49.38732 10.09967 24722 ft 453 kts 133°
2026-05-04 13:12 49.37408 10.12447 24929 ft 454 kts 133°
2026-05-04 13:12 49.34725 10.17486 25333 ft 458 kts 133°
2026-05-04 13:12 49.33390 10.19993 25536 ft 459 kts 133°
2026-05-04 13:12 49.31365 10.23794 25851 ft 461 kts 133°
2026-05-04 13:13 49.29332 10.27605 26121 ft 463 kts 133°
2026-05-04 13:13 49.26616 10.32685 26417 ft 467 kts 133°
2026-05-04 13:13 49.25224 10.35284 26641 ft 468 kts 133°
2026-05-04 13:13 49.23051 10.38999 26914 ft 468 kts 137°
2026-05-04 13:14 49.20765 10.42549 27207 ft 469 kts 138°
2026-05-04 13:14 49.18442 10.46059 27481 ft 471 kts 139°
2026-05-04 13:14 49.16090 10.49559 27777 ft 473 kts 139°
2026-05-04 13:14 49.13723 10.53059 28039 ft 474 kts 139°
2026-05-04 13:15 49.11342 10.56570 28282 ft 476 kts 139°
2026-05-04 13:15 49.08954 10.60092 28521 ft 478 kts 139°
2026-05-04 13:15 49.06558 10.63625 28767 ft 480 kts 139°
2026-05-04 13:15 49.04156 10.67168 29043 ft 481 kts 139°
2026-05-04 13:16 49.01754 10.70709 29398 ft 481 kts 139°
2026-05-04 13:16 48.99349 10.74248 29713 ft 480 kts 139°
2026-05-04 13:16 48.96943 10.77779 30036 ft 480 kts 139°
2026-05-04 13:16 48.94541 10.81298 30336 ft 479 kts 139°
2026-05-04 13:17 48.92139 10.84813 30607 ft 479 kts 139°
2026-05-04 13:17 48.89740 10.88323 30847 ft 479 kts 139°
2026-05-04 13:17 48.87345 10.91828 31087 ft 478 kts 140°
2026-05-04 13:17 48.84948 10.95332 31347 ft 478 kts 140°
2026-05-04 13:18 48.82548 10.98836 31591 ft 478 kts 140°
2026-05-04 13:18 48.80150 11.02331 31768 ft 479 kts 140°
2026-05-04 13:18 48.77746 11.05830 32025 ft 479 kts 140°
2026-05-04 13:18 48.75343 11.09328 32289 ft 478 kts 140°
2026-05-04 13:19 48.72948 11.12800 32549 ft 477 kts 140°
2026-05-04 13:19 48.70545 11.16268 32790 ft 477 kts 140°
2026-05-04 13:19 48.68186 11.19703 33015 ft 478 kts 138°
2026-05-04 13:19 48.66005 11.23506 33233 ft 481 kts 130°
2026-05-04 13:20 48.64189 11.27784 33443 ft 485 kts 121°
2026-05-04 13:20 48.62827 11.32459 33651 ft 487 kts 112°
2026-05-04 13:20 48.61704 11.37294 33856 ft 488 kts 111°
2026-05-04 13:20 48.60659 11.42169 34039 ft 488 kts 110°
2026-05-04 13:21 48.59645 11.47067 34220 ft 488 kts 110°
2026-05-04 13:21 48.58636 11.51963 34408 ft 488 kts 110°
2026-05-04 13:21 48.57624 11.56841 34577 ft 487 kts 110°
2026-05-04 13:21 48.56766 11.61784 34760 ft 488 kts 105°
2026-05-04 13:22 48.56002 11.66788 34920 ft 488 kts 105°
2026-05-04 13:22 48.54522 11.76858 34950 ft 495 kts 104°
2026-05-04 13:23 48.53035 11.87079 34963 ft 502 kts 104°
2026-05-04 13:23 48.51521 11.97403 34964 ft 504 kts 104°
2026-05-04 13:24 48.49998 12.07687 34964 ft 502 kts 104°
2026-05-04 13:24 48.48466 12.17957 34946 ft 502 kts 104°
2026-05-04 13:25 48.46135 12.33311 34957 ft 501 kts 105°
2026-05-04 13:25 48.44569 12.43552 34951 ft 501 kts 105°
2026-05-04 13:26 48.42998 12.53773 34948 ft 501 kts 105°
2026-05-04 13:26 48.41419 12.63989 34948 ft 501 kts 105°
2026-05-04 13:27 48.40030 12.74205 34948 ft 498 kts 97°
2026-05-04 13:27 48.39965 12.84693 34942 ft 504 kts 89°
2026-05-04 13:28 48.40267 12.95241 34944 ft 505 kts 88°
2026-05-04 13:28 48.40611 13.05791 34939 ft 505 kts 88°
2026-05-04 13:29 48.40927 13.16352 34947 ft 506 kts 89°
2026-05-04 13:29 48.41142 13.26930 34941 ft 505 kts 94°
2026-05-04 13:30 48.39889 13.37232 34942 ft 500 kts 109°
2026-05-04 13:30 48.37729 13.47179 34935 ft 500 kts 111°
2026-05-04 13:31 48.35421 13.57061 34937 ft 501 kts 111°
2026-05-04 13:31 48.33110 13.66945 34937 ft 501 kts 111°
2026-05-04 13:32 48.30831 13.76756 34940 ft 501 kts 111°
2026-05-04 13:32 48.28534 13.86639 34931 ft 501 kts 110°
2026-05-04 13:33 48.26229 13.96523 34952 ft 502 kts 111°
2026-05-04 13:33 48.23910 14.06417 34946 ft 503 kts 111°
2026-05-04 13:34 48.21582 14.16302 34945 ft 502 kts 111°
2026-05-04 13:34 48.19246 14.26172 34925 ft 502 kts 110°
2026-05-04 13:35 48.15733 14.40936 34942 ft 501 kts 110°
2026-05-04 13:36 48.13385 14.50747 34945 ft 501 kts 111°
2026-05-04 13:36 48.11026 14.60559 34944 ft 501 kts 111°
2026-05-04 13:37 48.08661 14.70352 34949 ft 501 kts 110°
2026-05-04 13:37 48.06286 14.80148 34948 ft 501 kts 110°
2026-05-04 13:38 48.03903 14.89933 34946 ft 501 kts 110°
2026-05-04 13:38 48.01512 14.99706 34954 ft 501 kts 111°
2026-05-04 13:39 47.99111 15.09470 34949 ft 501 kts 110°
2026-05-04 13:39 47.96705 15.19224 34956 ft 501 kts 110°
2026-05-04 13:40 47.94290 15.28965 34963 ft 501 kts 111°
2026-05-04 13:40 47.91867 15.38697 34965 ft 501 kts 111°
2026-05-04 13:41 47.89435 15.48421 34964 ft 501 kts 110°
2026-05-04 13:41 47.86988 15.58165 34963 ft 502 kts 110°
2026-05-04 13:42 47.83318 15.72703 34969 ft 503 kts 110°
2026-05-04 13:42 47.80849 15.82430 34978 ft 502 kts 110°
2026-05-04 13:43 47.78372 15.92147 34977 ft 502 kts 110°
2026-05-04 13:43 47.75886 16.01855 34980 ft 503 kts 110°
2026-05-04 13:44 47.73390 16.11565 34978 ft 503 kts 110°
2026-05-04 13:44 47.70886 16.21263 34980 ft 502 kts 110°
2026-05-04 13:45 47.68378 16.30937 34979 ft 503 kts 110°
2026-05-04 13:45 47.65858 16.40613 34980 ft 502 kts 110°
2026-05-04 13:46 47.63328 16.50290 34984 ft 503 kts 111°
2026-05-04 13:46 47.60793 16.59945 34994 ft 503 kts 111°
2026-05-04 13:47 47.58249 16.69594 34992 ft 502 kts 111°
2026-05-04 13:47 47.55692 16.79236 34993 ft 503 kts 111°
2026-05-04 13:48 47.53069 16.88822 34994 ft 503 kts 112°
2026-05-04 13:48 47.50420 16.98390 35004 ft 501 kts 112°
2026-05-04 13:49 47.47784 17.07911 35010 ft 500 kts 112°
2026-05-04 13:49 47.45152 17.17406 35029 ft 499 kts 112°
2026-05-04 13:50 47.42513 17.26897 35039 ft 500 kts 112°
2026-05-04 13:50 47.39868 17.36368 35048 ft 499 kts 111°
2026-05-04 13:51 47.37218 17.45819 35047 ft 498 kts 111°